Hourly Weather Roundup
Issued by NWS Central Illinois

Home | Current Version | Previous Version | Text Only | Print | Product List | Glossary On
Versions: 1 2 3 4 5 6 7 8 9 10 11 12 13 14 15 16 17 18 19 20 21 22 23 24 25 26 27 28 29 30 31 32 33 34 35 36 37 38 39 40 41 42 43 44 45 46 47 48 49 50
000
NZUS43 KILX 231110
HWRILX

AREA WEATHER ROUNDUP
NATIONAL WEATHER SERVICE, LINCOLN IL
600 AM CDT SAT AUG 23 2014


CITY           SKY/WX    TMP DP  RH WIND       PRES   REMARKS
BLOOMINGTON    CLEAR     70  70 100 E3        29.97S FOG
CHAMPAIGN      FOG       73  72  96 E6        29.96F VSB 1/2
DECATUR        MOCLDY    74  72  93 E5        29.95S FOG
FLORA          CLEAR     74  73  98 S3        29.95S FOG
GALESBURG      PTCLDY    74  73  96 E5        29.94R FOG
JACKSONVILLE   CLEAR     75  74  96 CALM      29.93S FOG
LACON          PTCLDY    70  69  96 CALM      29.94S
LAWRENCEVILLE  CLEAR     74  73  97 CALM      29.96S
LITCHFIELD     CLEAR     75  75  99 S3        29.93S FOG
$$


CITY           SKY/WX    TMP DP  RH WIND       PRES   REMARKS
LINCOLN          N/A     74  73  95 CALM      29.91S FOG
MACOMB         FOG       72  72 100 CALM      29.94S VSB 1
MATTOON        CLOUDY    75  75 100 SE7       29.95S FOG
MT CARMEL AP   CLEAR     75  73  94 CALM      29.96S
OLNEY-NOBLE AP CLEAR     75  75 100 CALM      29.95S FOG
PARIS          FOG       73  73 100 CALM      29.98S VSB 1/2
PEORIA         CLEAR     75  72  90 E5        29.93F
PONTIAC        CLEAR     72  72 100 CALM      29.95F FOG
RANTOUL        FOG       73  71  91 E5        29.97F VSB 1/2
ROBINSON       PTCLDY    74  73  98 CALM      29.97R FOG
SPRINGFIELD    CLEAR     77  75  93 E3        29.92F
TAYLORVILLE    CLEAR     73  73 100 CALM      29.93S FOG
$$

...REGIONAL REPORTS...


CITY           SKY/WX    TMP DP  RH WIND       PRES   REMARKS
CHICAGO O`HARE CLOUDY    73  69  87 E5        29.97S FOG
KANKAKEE       FOG       68  68  99 E3        29.97F VSB 1
MOLINE         MOCLDY    75  73  93 CALM      29.94R
MOUNT VERNON   PTCLDY    75  72  88 CALM      29.96R
PITTSFIELD     CLEAR     76  74  93 CALM      29.93R FOG
QUINCY         PTCLDY    77  75  93 S5        29.92R
ROCKFORD       CLOUDY    73  71  93 SE5       29.97S FOG
$$


CITY           SKY/WX    TMP DP  RH WIND       PRES   REMARKS
BURLINGTON     PTCLDY    74  74 100 SW3       29.92R FOG
CEDAR RAPIDS   MOCLDY    74  74 100 CALM      29.94R FOG
DES MOINES     TSTM      73  70  90 W15       29.96R
KIRKSVILLE     CLEAR     77  75  93 SE6       29.94S FOG
OTTUMWA        TSTM      74  72  93 W6        29.96R FOG
ST LOUIS       MOCLDY    81  73  76 CALM      29.93S HX  86
$$


CITY           SKY/WX    TMP DP  RH WIND       PRES   REMARKS
TERRE HAUTE    MOCLDY    71  70  96 CALM      29.98S FOG
EVANSVILLE     MOCLDY    76  70  82 CALM      29.97S
INDIANAPOLIS   MOCLDY    71  69  93 NE7       29.99R
LAFAYETTE      PTCLDY    69  69 100 CALM      29.98S
MADISON        FOG       74  73  97 SE3       29.96S VSB 3/4
MILWAUKEE      FOG       69  68  96 CALM      29.98F VSB 1/2
$$




USA.gov is the U.S. government's official web portal to all federal, state and local government web resources and services.